#timestamp,LO_Frequency,Hit,StdDev 
1547528415.5,286047003.4,N
1547528435.4,286047007.5,N
1547528455.2,286047004.9,N
1547528475.1,286047004.5,N
1547528476.0,286047004.5,N
1547528495.8,286047006.9,N
1547528515.6,286047006.6,N
1547528535.5,286047009.2,Y
1547528555.3,286047003.0,P
1547528575.1,286047004.2,P
1547528595.9,286047002.2,P
1547528615.7,286047002.5,Y
1547528635.6,286046999.1,P
1547528655.4,286046997.3,N
1547528675.2,286046995.4,N
1547528695.1,286046997.6,N
1547528696.0,286046997.6,N
1547528715.8,286046996.0,N
1547528735.7,286046995.7,N
1547528755.5,286046996.0,N
1547528775.3,286046993.4,N
1547528795.2,286046994.6,N
1547528815.0,286046991.7,Y
1547528815.9,286046991.7,P
1547528835.8,286046994.9,N
1547528855.6,286046997.1,N
1547528875.4,286046997.8,N
1547528895.3,286046997.7,N
1547528915.1,286046995.4,N
1547528935.8,286046995.7,N
1547528955.7,286046995.2,N
1547528975.5,286046995.8,N
1547528995.4,286046996.4,N
1547529015.2,286046993.4,Y
1547529035.0,286046999.2,P
1547529035.9,286046999.2,N
1547529055.8,286046999.2,N
1547529075.6,286046996.8,N
1547529095.5,286046997.8,N
1547529115.3,286046995.0,Y
1547529135.1,286046997.7,P
1547529155.9,286046995.4,P
1547529175.7,286046998.6,N
1547529195.5,286047001.0,N
1547529215.4,286046999.3,N
1547529235.2,286046998.3,N
1547529255.1,286046996.9,N
1547529256.0,286046996.9,N
1547529275.8,286046997.1,N
1547529295.6,286046997.4,N
1547529315.5,286046997.8,N
1547529335.3,286046997.2,N
1547529355.2,286046997.7,N
1547529375.9,286046995.5,Y
1547529395.7,286046999.2,P
1547529415.6,286046996.8,P
1547529435.4,286046995.2,P
1547529455.3,286046995.8,N
1547529475.1,286046995.8,N
1547529476.0,286046995.8,Y
1547529495.8,286046998.7,P
1547529515.7,286046997.2,N
1547529535.5,286046997.1,P
1547529555.4,286046999.4,N
1547529575.2,286046999.5,N
1547529595.0,286046999.4,N
1547529595.9,286046999.4,N
1547529615.8,286046998.6,N
1547529635.6,286046998.8,N
1547529655.4,286046999.0,N
1547529675.3,286047000.7,N
1547529695.1,286047000.5,N
1547529715.9,286046998.5,N
1547529735.7,286047000.8,N
1547529755.5,286047000.5,N
1547529775.4,286047000.0,N
1547529795.2,286046999.3,N
1547529815.0,286046998.4,N
1547529816.0,286046998.4,N
1547529835.8,286046998.5,N
1547529855.6,286046999.5,N
1547529875.5,286046997.3,N
1547529895.3,286046999.4,N
1547529915.1,286046997.0,N
1547529935.9,286046998.8,N
1547529955.7,286046999.5,N
1547529975.6,286046998.0,N
1547529995.4,286046996.1,Y
1547530015.2,286046997.3,P
1547530035.1,286046996.5,P
1547530036.0,286046996.5,P
1547530055.8,286046996.7,Y
1547530075.6,286047000.8,P
1547530095.5,286046998.1,N
1547530115.3,286047000.7,N
1547530135.2,286047002.8,N
1547530155.9,286046999.9,N
1547530175.7,286047000.9,N
1547530195.6,286047000.3,N
1547530215.4,286047000.2,N
1547530235.3,286047002.5,N
1547530255.1,286047000.3,N
1547530275.8,286047000.5,N
1547530295.7,286046999.9,N
1547530315.5,286046999.2,N
1547530335.4,286046999.3,N
1547530355.8,286046998.7,N
1547530375.6,286046997.1,N
1547530395.5,286046995.5,Y
1547530415.3,286046997.3,P
1547530435.1,286046997.7,N
1547530455.9,286046997.2,N
1547530475.7,286046999.0,N
1547530495.6,286046998.8,N
1547530515.4,286046998.6,N
1547530535.2,286046998.3,N
1547530555.1,286047000.7,N
1547530556.0,286047000.7,N
1547530575.8,286047001.0,N
1547530595.7,286046999.0,N
1547530615.5,286046998.9,N
1547530635.3,286046999.3,N
1547530655.2,286046999.2,N
1547530675.0,286046999.6,N
1547530675.9,286046999.6,N
1547530695.8,286046999.2,N
1547530715.6,286046999.4,N
1547530735.4,286046997.0,N
1547530755.3,286046997.1,N
1547530775.1,286046998.9,N
1547530795.8,286046998.2,N
1547530815.7,286046999.2,N
1547530835.5,286046999.5,N
1547530855.4,286046996.8,Y
1547530875.2,286046999.3,P
1547530895.0,286047000.6,P
1547530896.0,286047000.6,N
1547530915.8,286047002.0,N
1547530935.6,286047007.0,Y
1547530955.5,286047008.8,P
1547530975.3,286047011.4,N
1547530995.1,286047014.3,P
1547531015.9,286047011.0,N
1547531035.1,286047009.3,N
1547531055.9,286047012.0,N
1547531075.7,286047012.7,Y
1547531095.6,286047001.7,P
1547531115.4,286046999.7,N
1547531135.2,286047001.2,N
1547531155.1,286046999.1,N
1547531156.0,286046999.1,N
1547531175.8,286046996.6,N
1547531195.7,286046997.1,N
1547531215.5,286046993.8,N
1547531235.3,286046994.6,N
1547531255.2,286046994.3,N
1547531275.0,286046991.7,N
1547531275.9,286046991.7,N
1547531295.7,286046992.7,N
1547531315.6,286046991.9,N
1547531335.4,286046992.4,N
1547531355.3,286046994.3,N
1547531375.1,286046995.3,N
1547531395.8,286046995.7,N
1547531415.7,286046993.6,N
1547531435.5,286046993.5,N
1547531455.4,286046994.0,N
1547531475.2,286046993.9,N
1547531495.0,286046994.1,N
1547531495.9,286046994.1,N
1547531515.8,286046996.3,N
1547531535.6,286046996.0,N
1547531555.4,286046995.5,N
1547531575.3,286046995.1,N
1547531595.1,286046993.5,N
1547531615.9,286046996.4,N
1547531635.7,286046996.2,N
1547531655.5,286046994.2,N
1547531675.4,286046995.1,N
1547531695.2,286046996.2,N
1547531715.1,286046996.0,N
1547531716.0,286046996.0,N
1547531735.8,286046993.3,Y
1547531755.6,286047000.5,P
1547531775.5,286047000.8,N
1547531795.3,286047000.8,N
1547531815.2,286047000.3,N
1547531835.9,286047000.5,N
1547531855.7,286047002.6,N
1547531875.6,286047000.8,N
1547531895.4,286047001.1,N
1547531915.2,286047000.0,N
1547531935.1,286047002.1,N
1547531936.0,286047002.1,N
1547531955.8,286047001.8,N
1547531975.7,286047002.3,N
1547531995.5,286047000.3,N
